Northolt, United Kingdom

9:12 PM BST on August 30, 2016 (GMT +0100)
Northolt Air Base

Weather History for EGWU - May, 2013

Change the Weather History Date:

Tuesday, May 21, 2013

  Actual Average Record
Temperature  
Mean Temperature 56 °F -  
Max Temperature 58 °F 66 °F 68 °F (2011)
Min Temperature 53 °F 50 °F 37 °F (2015)
Degree Days  
Heating Degree Days 10    
Growing Degree Days 6 (Base 50)    
Moisture  
Dew Point 48 °F    
Average Humidity 72    
Maximum Humidity 88    
Minimum Humidity 52    
Precipitation  
Precipitation 0.00 in - - ()
Sea Level Pressure  
Sea Level Pressure 30.00 in    
Wind  
Wind Speed 9 mph ()    
Max Wind Speed 14 mph    
Max Gust Speed -    
Visibility 7.5 miles    
Events Rain    
Averages and records for this station are not official NWS values.
T = Trace of Precipitation, MM = Missing Value Source: Averaged Metar Reports

Daily Weather History Graph

Daily Weather History Graph

Search for Another Location

Airport or City:

Trip Planner

Search our weather history database for the weather conditions in past years. The results will help you decide how hot, cold, wet, or windy it might be!

Date:

Astronomy

May. 21, 2013 Rise Set
Actual Time 5:01 AM BST 8:56 PM BST
Civil Twilight 4:18 AM BST 9:39 PM BST
Nautical Twilight 3:18 AM BST 10:40 PM BST
Astronomical Twilight 1:26 AM BST 12:42 AM BST
Moon 4:26 PM BST (5/21) 2:51 AM BST (5/21)
Length of Visible Light 17h 21m
Length of Day
15h 54m
Waxing Gibbous, 82% of the Moon is Illuminated
May 21
Waxing Gibbous
May 25
Full
May 31
Last Quarter
Jun 8
New
Jun 16
First Quarter

Hourly Weather History & Observations

Time (BST) Temp. Dew Point Humidity Pressure Visibility Wind Dir Wind Speed Gust Speed Precip Events Conditions
12:50 AM 60 °F 54 °F 75% 29.92 in 6 mi NNW 8.1 mph - -   Mostly Cloudy
12:50 AM 60.8 °F 53.6 °F 77% 29.92 in 5.6 mi NNW 8.1 mph - N/A   Mostly Cloudy
1:50 AM 59.0 °F 51.8 °F 77% 29.92 in 6.2 mi North 13.8 mph - N/A   Mostly Cloudy
2:50 AM 59.0 °F 51.8 °F 77% 29.92 in 6.2 mi North 10.4 mph - N/A   Overcast
3:50 AM 58 °F 51 °F 69% 29.93 in 11 mi North 10.4 mph - -   Mostly Cloudy
3:50 AM 57.2 °F 50.0 °F 77% 29.92 in 6.2 mi North 10.4 mph - N/A   Mostly Cloudy
4:50 AM 57.2 °F 50.0 °F 77% 29.92 in 6.2 mi North 11.5 mph - N/A   Overcast
5:50 AM 55.4 °F 50.0 °F 82% 29.92 in 6.2 mi North 12.7 mph - N/A   Scattered Clouds
6:50 AM 55 °F 49 °F 74% 29.95 in 9 mi North 12.7 mph - -   Mostly Cloudy
6:50 AM 55.4 °F 48.2 °F 77% 29.95 in 6.2 mi North 12.7 mph - N/A   Mostly Cloudy
7:50 AM 55.4 °F 48.2 °F 77% 29.95 in 6.2 mi North 11.5 mph - N/A   Mostly Cloudy
8:50 AM 53.6 °F 50.0 °F 88% 29.98 in 5.6 mi NNE 11.5 mph - N/A   Light Drizzle
9:50 AM 54 °F 47 °F 68% 30.00 in 12 mi NNE 12.7 mph - - Rain Light Drizzle
9:50 AM 53.6 °F 46.4 °F 77% 29.98 in 6.2 mi NNE 12.7 mph - N/A   Mostly Cloudy
10:50 AM 55.4 °F 46.4 °F 72% 30.01 in 6.2 mi NNE 11.5 mph - N/A   Overcast
11:50 AM 53.6 °F 46.4 °F 77% 30.01 in 6.2 mi North 10.4 mph - N/A   Mostly Cloudy
12:50 PM 55 °F 46 °F 63% 30.04 in 19 mi NNE 12.7 mph - -   Partly Cloudy
12:50 PM 55.4 °F 46.4 °F 72% 30.04 in 6.2 mi NNE 12.7 mph - N/A   Overcast
1:50 PM 55.4 °F 46.4 °F 72% 30.04 in 6.2 mi NNE 12.7 mph - N/A   Overcast
2:50 PM 55.4 °F 46.4 °F 72% 30.01 in 6.2 mi NNE 10.4 mph - N/A   Overcast
3:50 PM 58 °F 45 °F 53% 30.04 in 12 mi NNE 10.4 mph - -   Overcast
3:50 PM 57.2 °F 44.6 °F 63% 30.04 in 6.2 mi NNE 10.4 mph - N/A   Overcast
4:50 PM 57.2 °F 44.6 °F 63% 30.04 in 6.2 mi North 11.5 mph - N/A   Mostly Cloudy
5:50 PM 57.2 °F 46.4 °F 67% 30.04 in 6.2 mi ENE 8.1 mph - N/A   Scattered Clouds
6:50 PM 58 °F 45 °F 52% 30.04 in 16 mi NNE 6.9 mph - -   Mostly Cloudy
6:50 PM 57.2 °F 44.6 °F 63% 30.04 in 6.2 mi NNE 6.9 mph - N/A   Mostly Cloudy
7:50 PM 57.2 °F 46.4 °F 67% 30.04 in 6.2 mi NNE 2.3 mph - N/A   Scattered Clouds
8:50 PM 53.6 °F 48.2 °F 82% 30.04 in 6.2 mi East 1.2 mph - N/A   Mostly Cloudy
9:50 PM 55 °F 47 °F 68% 30.08 in 6 mi North 3.5 mph - -   Mostly Cloudy
9:50 PM 55.4 °F 48.2 °F 77% 30.06 in 6.2 mi North 3.5 mph - N/A   Mostly Cloudy
10:50 PM 53.6 °F 48.2 °F 82% 30.06 in 6.2 mi North 6.9 mph - N/A   Mostly Cloudy
11:50 PM 53.6 °F 44.6 °F 72% 30.06 in 6.2 mi NE 6.9 mph - N/A   Overcast